Total_Precipitation_Accumulation
0.00 0.00 0.00 0.00 0.00 0.00 0.00 0.00 0.00 0.00 0.00 0.00 0.00 0.00 0.00 0.00 0.01 0.00 0.00 0.00 0.00 0.00 0.00 0.00 0.00 0.00 0.00 0.00 0.00 0.00 0.00 0.00 0.00 0.00 0.00 0.01 0.01 0.01 0.02 0.07 0.05 0.10 0.42 0.29 0.60 0.22 0.68 0.79 0.38 0.41 0.49 0.73 0.80 0.67 0.78 0.70 0.41 0.78 0.31 0.66 1.02 0.96 0.77 0.30 0.31 0.40 0.67 0.56 0.46 0.39 0.22 0.13 0.04 0.07 0.08 0.43 0.24 0.57 0.51 0.73 0.58 0.51 0.33 0.32 0.12 0.20
0.00 0.00 0.00 0.00 0.00 0.00 0.00 0.00 0.00 0.00 0.00 0.00 0.00 0.00 0.00 0.00 0.00 0.00 0.00 0.00 0.00 0.00 0.00 0.00 0.00 0.00 0.00 0.00 0.00 0.00 0.00 0.00 0.00 0.00 0.00 0.00 0.00 0.00 0.02 0.07 0.02 0.14 0.37 0.53 0.46 0.29 0.84 0.35 0.38 0.43 0.53 0.74 0.84 0.65 0.38 0.53 0.51 0.70 0.49 0.86 0.91 1.00 0.76 0.76 0.57 0.35 0.44 0.62 0.31 0.21 0.21 0.07 0.18 0.08 0.15 0.24 0.35 0.53 0.64 0.67 0.52 0.46 0.35 0.32 0.42 0.19
0.00 0.00 0.00 0.00 0.00 0.00 0.00 0.00 0.00 0.00 0.00 0.00 0.00 0.00 0.00 0.00 0.00 0.00 0.00 0.00 0.00 0.00 0.00 0.00 0.00 0.00 0.00 0.00 0.00 0.00 0.00 0.00 0.00 0.00 0.00 0.00 0.00 0.02 0.02 0.04 0.05 0.07 0.07 0.23 0.43 0.44 0.46 0.39 0.33 0.30 0.27 0.56 0.56 0.38 0.57 0.17 0.42 0.64 0.78 0.63 1.20 0.93 1.16 0.99 1.19 0.93 0.79 0.65 0.75 0.66 0.41 0.26 0.23 0.36 0.56 0.19 0.28 0.52 0.40 0.15 0.41 0.28 0.13 0.19 0.33 0.16
0.00 0.00 0.00 0.00 0.00 0.00 0.00 0.00 0.00 0.00 0.00 0.00 0.00 0.00 0.00 0.00 0.00 0.00 0.00 0.00 0.00 0.00 0.00 0.00 0.00 0.00 0.00 0.00 0.00 0.00 0.00 0.00 0.00 0.00 0.00 0.00 0.00 0.05 0.04 0.08 0.05 0.02 0.03 0.18 0.25 0.38 0.25 0.15 0.61 0.47 0.21 0.50 0.50 1.05 0.47 0.65 0.72 0.52 0.65 0.82 0.72 0.68 0.78 0.70 0.51 0.56 0.84 0.60 0.64 0.91 0.97 0.51 0.69 0.84 0.40 0.24 0.39 0.42 0.52 0.22 0.17 0.19 0.39 0.21 0.15 0.17
0.00 0.00 0.00 0.00 0.00 0.00 0.00 0.00 0.00 0.00 0.00 0.00 0.00 0.00 0.00 0.00 0.00 0.00 0.02 0.00 0.00 0.00 0.00 0.00 0.00 0.00 0.00 0.00 0.00 0.00 0.00 0.00 0.00 0.00 0.00 0.00 0.01 0.01 0.04 0.03 0.08 0.02 0.09 0.20 0.19 0.54 0.17 0.16 0.43 0.59 0.30 0.52 1.04 0.44 0.59 0.94 0.63 0.60 0.67 0.75 0.64 0.83 0.85 0.79 0.66 0.32 1.00 1.28 1.16 0.93 1.04 0.70 0.45 0.42 0.23 0.25 0.17 0.09 0.22 0.12 0.11 0.24 0.13 0.06 0.06 0.09
0.00 0.01 0.00 0.00 0.00 0.00 0.00 0.00 0.00 0.00 0.00 0.00 0.00 0.00 0.00 0.00 0.00 0.00 0.00 0.00 0.00 0.00 0.00 0.00 0.00 0.00 0.00 0.00 0.00 0.00 0.00 0.00 0.00 0.00 0.00 0.02 0.03 0.02 0.04 0.06 0.03 0.01 0.03 0.33 0.11 0.28 0.24 0.17 0.65 0.61 0.78 1.28 1.38 0.84 0.81 1.00 0.82 0.89 0.76 1.05 0.52 0.92 0.82 0.35 0.47 0.82 1.10 1.12 0.84 0.84 0.60 0.32 0.23 0.18 0.23 0.16 0.08 0.05 0.05 0.04 0.09 0.09 0.06 0.13 0.04 0.03
0.00 0.00 0.00 0.00 0.00 0.00 0.00 0.00 0.00 0.00 0.00 0.00 0.00 0.00 0.00 0.00 0.00 0.00 0.00 0.00 0.00 0.00 0.02 0.00 0.00 0.02 0.00 0.01 0.00 0.00 0.00 0.00 0.00 0.00 0.00 0.00 0.03 0.10 0.06 0.05 0.04 0.04 0.04 0.13 0.20 0.11 0.23 0.39 0.68 0.22 0.63 0.89 0.70 1.04 0.67 0.64 1.02 0.44 0.30 0.84 0.71 0.74 0.61 0.39 0.56 0.68 0.59 0.79 0.78 0.51 0.41 0.25 0.20 0.16 0.09 0.12 0.11 0.05 0.04 0.05 0.05 0.04 0.04 0.04 0.05 0.05
0.00 0.00 0.00 0.00 0.00 0.00 0.00 0.00 0.00 0.00 0.00 0.00 0.00 0.00 0.00 0.00 0.00 0.00 0.00 0.00 0.01 0.00 0.00 0.00 0.00 0.02 0.03 0.01 0.00 0.00 0.00 0.00 0.00 0.00 0.00 0.00 0.03 0.04 0.06 0.09 0.03 0.03 0.02 0.07 0.17 0.64 0.61 0.59 0.33 0.27 0.73 0.63 1.14 1.25 0.72 0.93 1.18 0.76 0.44 0.28 0.71 0.47 0.33 0.56 0.75 0.45 0.22 0.78 0.86 0.70 0.67 0.86 0.46 0.34 0.15 0.10 0.18 0.19 0.08 0.15 0.05 0.06 0.06 0.03 0.07 0.04
0.00 0.00 0.00 0.00 0.00 0.00 0.00 0.00 0.00 0.00 0.00 0.00 0.00 0.00 0.00 0.00 0.00 0.00 0.00 0.00 0.00 0.01 0.03 0.00 0.00 0.00 0.01 0.01 0.00 0.00 0.00 0.00 0.00 0.00 0.00 0.00 0.01 0.03 0.04 0.04 0.09 0.08 0.22 0.15 0.49 0.53 0.87 0.53 0.57 0.56 0.34 0.69 0.92 0.83 0.83 1.18 1.59 0.65 0.63 0.42 0.65 0.71 0.56 0.50 0.62 0.73 1.01 1.24 1.17 0.86 0.80 0.53 0.50 0.36 0.26 0.15 0.03 0.04 0.10 0.13 0.07 0.04 0.03 0.03 0.02 0.04
0.00 0.00 0.00 0.00 0.00 0.00 0.00 0.00 0.00 0.00 0.00 0.00 0.00 0.00 0.00 0.00 0.00 0.00 0.00 0.00 0.02 0.00 0.02 0.01 0.02 0.01 0.03 0.00 0.01 0.00 0.00 0.00 0.00 0.00 0.02 0.01 0.02 0.02 0.05 0.05 0.08 0.16 0.14 0.29 0.38 0.34 0.48 1.22 0.96 0.46 0.13 0.58 0.86 0.99 0.97 1.36 1.88 1.13 1.00 0.88 0.27 0.31 0.82 0.62 0.60 0.45 0.79 0.53 1.12 1.21 0.86 0.55 0.35 0.33 0.12 0.18 0.06 0.10 0.04 0.07 0.05 0.03 0.03 0.03 0.04 0.04
0.00 0.00 0.00 0.00 0.00 0.00 0.00 0.00 0.00 0.00 0.00 0.00 0.00 0.00 0.00 0.00 0.00 0.00 0.00 0.00 0.01 0.00 0.01 0.00 0.01 0.01 0.06 0.02 0.03 0.01 0.01 0.00 0.01 0.05 0.02 0.04 0.03 0.04 0.04 0.05 0.04 0.05 0.16 0.24 0.53 0.47 0.69 1.05 0.84 0.44 0.12 0.12 0.71 1.02 1.11 2.25 0.83 0.87 0.90 1.16 1.00 0.41 0.47 0.55 0.60 0.44 0.64 0.61 0.31 0.31 0.51 0.66 0.40 0.25 0.07 0.07 0.07 0.06 0.07 0.04 0.03 0.03 0.05 0.03 0.03 0.03
0.00 0.00 0.00 0.00 0.00 0.00 0.00 0.00 0.00 0.00 0.00 0.00 0.00 0.00 0.00 0.00 0.00 0.00 0.00 0.00 0.04 0.00 0.02 0.00 0.00 0.03 0.10 0.06 0.02 0.02 0.00 0.03 0.03 0.03 0.00 0.02 0.04 0.06 0.04 0.10 0.03 0.03 0.07 0.30 0.39 0.73 0.68 0.39 0.34 0.30 0.34 0.40 1.29 1.59 1.62 1.30 1.00 1.04 0.94 0.92 0.73 0.56 0.32 0.34 0.47 0.54 0.61 0.61 0.45 0.32 0.58 0.37 0.19 0.14 0.10 0.07 0.03 0.02 0.03 0.02 0.01 0.02 0.03 0.02 0.03 0.03
0.00 0.00 0.00 0.00 0.00 0.00 0.00 0.00 0.00 0.00 0.00 0.00 0.00 0.00 0.01 0.08 0.00 0.01 0.00 0.00 0.00 0.01 0.00 0.00 0.01 0.01 0.00 0.10 0.07 0.00 0.02 0.01 0.03 0.02 0.09 0.02 0.02 0.05 0.02 0.05 0.15 0.03 0.12 0.26 0.55 0.63 0.59 0.42 0.25 0.76 1.40 0.71 0.49 1.25 1.75 1.11 1.12 0.74 0.93 0.90 0.95 1.19 0.42 0.44 0.25 0.38 0.94 0.89 1.18 0.70 0.55 0.39 0.34 0.09 0.12 0.07 0.01 0.01 0.06 0.03 0.02 0.02 0.01 0.01 0.01 0.01
0.01 0.00 0.00 0.00 0.00 0.00 0.00 0.00 0.01 0.00 0.00 0.00 0.00 0.00 0.03 0.07 0.04 0.01 0.05 0.01 0.04 0.02 0.00 0.00 0.01 0.04 0.02 0.02 0.01 0.00 0.01 0.01 0.01 0.02 0.02 0.01 0.01 0.02 0.02 0.06 0.09 0.08 0.32 0.35 0.62 0.59 0.64 0.48 1.14 0.94 0.72 0.63 0.84 1.60 1.28 0.75 0.71 0.64 0.67 0.73 1.04 1.01 0.43 0.36 0.49 0.20 0.33 0.81 0.63 0.51 0.40 0.29 0.24 0.20 0.17 0.31 0.08 0.04 0.02 0.02 0.03 0.03 0.01 0.00 0.00 0.00
0.01 0.07 0.01 0.00 0.00 0.00 0.00 0.00 0.00 0.01 0.00 0.00 0.00 0.00 0.02 0.05 0.02 0.01 0.02 0.06 0.06 0.09 0.06 0.00 0.00 0.06 0.06 0.58 0.01 0.05 0.03 0.01 0.00 0.02 0.03 0.05 0.06 0.03 0.03 0.16 0.14 0.17 0.08 0.19 0.25 0.41 0.95 1.20 1.08 0.84 1.02 0.70 0.55 1.24 1.04 0.64 0.58 0.45 0.48 0.76 0.67 0.56 0.80 0.41 0.35 0.41 0.83 0.21 0.50 1.01 0.66 0.38 0.12 0.17 0.08 0.06 0.07 0.12 0.04 0.02 0.02 0.01 0.01 0.00 0.00 0.00
0.01 0.06 0.02 0.00 0.00 0.00 0.00 0.00 0.00 0.00 0.00 0.00 0.00 0.01 0.00 0.03 0.00 0.02 0.18 0.02 0.19 0.05 0.02 0.05 0.03 0.09 0.13 0.08 0.05 0.07 0.02 0.01 0.04 0.03 0.03 0.03 0.05 0.02 0.11 0.13 0.16 0.16 0.15 0.33 0.49 1.02 1.20 1.19 1.14 0.99 0.82 0.82 0.69 0.75 0.55 0.31 0.35 0.47 0.41 0.46 0.51 0.52 0.45 0.26 0.35 0.55 0.75 0.58 0.12 0.22 0.10 0.09 0.19 0.11 0.10 0.06 0.09 0.07 0.03 0.04 0.03 0.01 0.01 0.00 0.00 0.00
0.00 0.09 0.00 0.01 0.00 0.00 0.00 0.00 0.00 0.00 0.14 0.06 0.00 0.01 0.00 0.00 0.00 0.00 0.00 0.00 0.00 0.00 0.01 0.01 0.12 0.01 0.01 0.03 0.04 0.11 0.02 0.04 0.09 0.03 0.04 0.26 0.36 0.49 0.58 0.79 0.87 0.84 0.75 0.94 1.24 1.28 1.13 1.16 0.96 1.03 0.51 0.37 0.29 0.40 0.28 0.24 0.15 0.07 0.15 0.25 0.28 0.46 0.37 0.61 0.59 0.57 0.73 0.79 0.63 0.53 0.12 0.11 0.14 0.09 0.05 0.09 0.03 0.08 0.09 0.06 0.04 0.01 0.01 0.01 0.00 0.00
0.04 0.20 0.00 0.00 0.01 0.00 0.00 0.00 0.00 0.00 0.00 0.00 0.01 0.05 0.00 0.00 0.00 0.01 0.04 0.01 0.00 0.00 0.11 0.01 0.05 0.11 0.04 0.41 0.20 0.19 0.31 0.18 0.17 0.22 0.40 0.42 0.52 0.59 0.73 0.71 0.83 0.96 1.02 0.79 0.84 0.63 0.56 0.59 0.81 0.82 0.53 0.76 0.41 0.42 0.28 0.24 0.41 0.55 1.01 1.03 0.60 0.85 1.24 1.08 0.57 0.41 0.46 0.71 0.89 0.36 0.19 0.20 0.11 0.15 0.11 0.11 0.04 0.04 0.05 0.03 0.03 0.02 0.00 0.00 0.00 0.00
0.00 0.08 0.01 0.00 0.00 0.01 0.00 0.00 0.00 0.00 0.00 0.00 0.06 0.00 0.01 0.03 0.02 0.01 0.01 0.02 0.01 0.00 0.04 0.02 0.04 0.10 0.15 0.37 0.11 0.38 0.47 0.26 0.22 0.23 0.15 0.13 0.10 0.30 0.65 0.78 0.73 0.40 0.41 0.33 0.48 0.43 0.29 0.34 0.35 0.42 0.32 0.19 0.52 1.01 0.48 0.40 0.31 0.20 0.30 0.36 0.25 0.61 0.66 1.10 0.77 0.88 1.52 0.80 0.92 0.56 0.35 0.16 0.18 0.56 0.57 0.36 0.13 0.12 0.17 0.08 0.03 0.00 0.00 0.00 0.00 0.00
0.00 0.03 0.04 0.00 0.00 0.01 0.00 0.00 0.02 0.01 0.00 0.00 0.00 0.00 0.00 0.00 0.09 0.04 0.00 0.03 0.00 0.10 0.00 0.06 0.02 0.06 0.14 0.29 0.11 0.20 0.20 0.26 0.17 0.19 0.32 0.33 0.45 0.30 0.32 0.24 0.35 0.35 0.51 0.55 0.56 0.45 0.40 0.28 0.45 0.34 0.35 0.37 0.32 0.18 0.17 0.60 1.06 0.96 0.84 0.19 0.20 0.31 1.03 0.31 0.19 0.96 0.90 0.56 0.31 0.61 0.51 0.48 0.27 0.13 0.11 0.06 0.04 0.02 0.02 0.00 0.00 0.00 0.00 0.00 0.00 0.00
0.03 0.00 0.10 0.07 0.01 0.00 0.07 0.00 0.01 0.00 0.02 0.00 0.00 0.00 0.00 0.00 0.02 0.00 0.06 0.04 0.03 0.07 0.09 0.06 0.17 0.36 0.17 0.09 0.12 0.21 0.16 0.10 0.41 0.40 0.30 0.45 0.49 0.68 0.58 0.33 0.38 0.42 0.45 0.39 0.33 0.35 0.67 0.49 0.39 0.30 0.32 0.33 0.24 0.26 1.03 1.11 1.05 0.91 0.97 0.29 0.16 0.33 0.77 0.57 0.46 0.86 0.69 0.63 0.34 0.13 0.25 0.36 0.08 0.03 0.04 0.01 0.01 0.01 0.00 0.00 0.00 0.00 0.00 0.00 0.00 0.00
0.00 0.01 0.01 0.07 0.13 0.03 0.03 0.00 0.00 0.00 0.00 0.00 0.00 0.00 0.00 0.01 0.01 0.03 0.03 0.00 0.00 0.02 0.12 0.06 0.13 0.19 0.36 0.08 0.40 0.31 0.08 0.43 0.35 0.53 0.58 0.48 0.43 0.31 0.28 0.45 0.37 0.55 0.39 0.31 0.24 0.49 0.43 0.47 0.72 0.43 0.29 0.40 0.27 0.22 0.47 0.59 0.38 0.30 0.71 0.85 0.96 1.40 1.17 0.84 1.06 0.59 0.90 0.46 0.48 0.14 0.20 0.16 0.38 0.09 0.00 0.00 0.00 0.00 0.00 0.00 0.00 0.00 0.00 0.00 0.00 0.00
0.04 0.09 0.09 0.05 0.07 0.34 0.02 0.04 0.00 0.00 0.00 0.00 0.02 0.05 0.00 0.00 0.00 0.04 0.03 0.13 0.03 0.01 0.01 0.12 0.14 0.35 0.18 0.21 0.18 0.33 0.09 0.07 0.38 0.53 1.03 0.51 0.56 0.25 0.17 0.20 0.58 0.49 0.46 0.40 0.46 0.49 1.09 0.66 0.72 0.55 0.42 0.51 0.29 0.27 0.36 0.53 0.71 1.49 1.41 2.17 2.50 2.09 1.80 1.19 1.50 1.84 0.88 0.69 0.31 0.32 0.28 0.21 0.22 0.12 0.03 0.01 0.00 0.00 0.00 0.00 0.00 0.00 0.00 0.00 0.00 0.00
0.00 0.03 0.11 0.06 0.07 0.09 0.12 0.01 0.00 0.00 0.00 0.01 0.01 0.01 0.01 0.07 0.01 0.05 0.07 0.15 0.18 0.16 0.12 0.07 0.05 0.30 0.15 0.21 0.34 0.22 0.19 0.14 0.23 0.80 0.45 0.80 0.68 0.49 0.27 0.17 0.18 0.30 0.36 0.38 0.46 1.07 1.07 1.08 0.67 0.89 0.49 0.52 0.25 0.61 0.69 1.36 1.28 1.59 2.27 1.62 2.25 2.08 1.30 1.55 1.29 1.09 1.10 1.47 1.07 0.38 0.38 0.37 0.23 0.10 0.09 0.00 0.00 0.01 0.00 0.00 0.01 0.00 0.00 0.00 0.00 0.00
0.19 0.23 0.06 0.35 0.20 0.25 0.23 0.09 0.03 0.00 0.00 0.03 0.14 0.06 0.07 0.05 0.03 0.03 0.05 0.05 0.05 0.11 0.17 0.09 0.31 0.28 0.22 0.21 0.12 0.35 0.15 0.57 0.63 0.66 0.79 0.72 0.84 0.47 0.26 0.11 0.08 0.14 0.55 0.39 0.68 0.95 0.73 0.60 0.52 0.49 0.46 0.43 0.60 0.86 1.30 1.97 1.98 1.48 1.47 1.90 2.09 1.48 1.15 1.25 1.33 1.06 1.45 1.52 1.29 0.96 0.62 0.59 0.58 0.14 0.14 0.13 0.03 0.00 0.00 0.01 0.01 0.00 0.01 0.00 0.00 0.01
0.14 0.36 0.18 0.28 0.32 0.40 0.36 0.28 0.28 0.14 0.16 0.13 0.07 0.05 0.10 0.01 0.01 0.04 0.02 0.05 0.04 0.09 0.11 0.11 0.08 0.23 0.20 0.10 0.20 0.58 0.66 0.73 0.82 0.57 0.60 0.72 0.58 0.55 0.83 0.24 0.65 0.39 0.30 0.38 0.40 0.66 1.04 0.85 0.80 0.73 0.82 0.73 0.85 0.92 1.01 0.87 1.04 0.90 0.84 1.30 1.08 2.46 1.56 1.47 1.67 1.55 1.08 1.26 1.74 1.54 1.26 0.94 1.09 0.87 0.41 0.18 0.27 0.36 0.28 0.11 0.14 0.15 0.08 0.04 0.00 0.00
0.15 0.13 0.16 0.20 0.30 0.27 0.39 0.26 0.23 0.04 0.06 0.18 0.16 0.13 0.12 0.10 0.10 0.11 0.09 0.04 0.14 0.15 0.10 0.30 0.22 0.15 0.17 0.21 0.10 0.15 0.25 0.19 0.30 0.32 0.60 0.51 0.70 0.39 0.56 1.09 0.77 0.95 1.01 1.06 0.82 0.77 0.84 0.92 0.70 0.85 1.07 1.44 1.54 2.49 2.82 2.39 1.96 1.57 1.29 2.31 1.54 1.37 2.22 2.42 1.74 1.05 1.07 1.21 1.33 1.71 1.24 0.88 0.63 0.81 0.45 0.58 0.31 0.28 0.25 0.27 0.20 0.14 0.13 0.18 0.10 0.04
0.10 0.08 0.12 0.12 0.19 0.14 0.16 0.18 0.14 0.03 0.11 0.08 0.04 0.10 0.06 0.02 0.08 0.04 0.05 0.09 0.25 0.05 0.31 0.32 0.21 0.17 0.25 0.14 0.16 0.12 0.16 0.03 0.06 0.13 0.08 0.11 0.30 0.74 1.14 0.44 0.39 0.31 0.47 0.50 0.39 0.49 0.95 1.36 1.10 1.20 1.03 1.40 1.56 2.13 1.58 0.89 0.71 1.42 2.16 2.19 1.76 1.63 1.16 0.81 1.14 1.28 1.46 1.56 1.52 1.15 1.31 1.63 1.09 1.05 0.55 0.63 0.56 0.59 0.52 0.43 0.35 0.78 0.70 0.68 0.29 0.41
0.36 0.22 0.16 0.07 0.14 0.17 0.14 0.12 0.10 0.26 0.14 0.01 0.02 0.02 0.10 0.03 0.02 0.11 0.08 0.09 0.15 0.06 0.23 0.43 0.33 0.16 0.14 0.16 0.20 0.44 0.12 0.01 0.03 0.06 0.06 0.05 0.06 0.12 0.37 0.45 0.55 0.61 0.78 0.54 0.39 0.25 0.27 0.42 0.57 0.80 1.36 1.36 2.07 2.40 0.97 0.82 1.01 1.30 0.98 0.95 1.20 1.15 1.06 1.07 1.98 2.37 1.25 1.10 1.65 1.89 2.21 2.15 1.78 1.32 0.80 0.87 0.60 0.69 0.74 0.49 0.52 0.66 1.11 0.73 0.65 0.51
0.05 0.18 0.78 0.27 0.16 0.25 0.15 0.10 0.11 0.14 0.17 0.13 0.08 0.05 0.04 0.05 0.11 0.06 0.09 0.09 0.06 0.15 0.19 0.15 0.07 0.05 0.08 0.10 0.23 0.34 0.21 0.01 0.00 0.02 0.02 0.02 0.03 0.04 0.10 0.12 0.39 0.37 0.28 0.27 0.34 0.35 0.29 0.18 0.23 0.39 1.05 1.50 1.15 1.40 0.58 1.00 1.16 0.61 1.22 1.32 1.46 0.76 1.06 2.57 1.54 0.87 1.04 1.43 1.13 1.35 1.43 1.53 1.38 1.19 0.93 0.62 0.45 0.23 0.24 0.26 0.32 0.29 0.34 0.21 0.28 0.33
0.06 0.34 0.09 0.26 0.27 0.29 0.20 0.09 0.11 0.07 0.12 0.28 0.11 0.08 0.08 0.06 0.13 0.10 0.07 0.07 0.02 0.19 0.17 0.04 0.01 0.06 0.19 0.18 0.36 0.59 0.24 0.00 0.02 0.29 0.05 0.05 0.06 0.03 0.07 0.05 0.08 0.22 0.35 0.28 0.31 0.33 0.35 0.33 0.17 0.18 0.39 0.74 0.81 0.86 0.61 0.44 1.20 0.64 0.82 1.39 1.23 0.90 0.97 1.21 1.42 1.94 1.86 1.86 0.92 0.73 0.68 0.86 0.84 0.99 0.89 0.50 0.26 0.26 0.20 0.13 0.10 0.11 0.12 0.41 0.29 0.26
0.13 0.25 0.07 0.25 0.29 0.28 0.24 0.27 0.35 0.22 0.11 0.29 0.22 0.13 0.15 0.05 0.04 0.04 0.04 0.14 0.05 0.34 0.29 0.15 0.04 0.04 0.08 0.05 0.55 0.25 0.20 0.04 0.09 0.27 0.38 0.44 0.39 0.39 0.32 0.27 0.09 0.10 0.22 0.40 0.43 0.42 0.50 0.41 0.34 0.36 0.24 0.33 0.46 0.64 0.69 0.57 0.94 0.89 0.80 1.08 1.22 1.92 2.62 1.42 1.82 1.71 1.39 0.86 0.91 1.54 1.22 1.14 1.06 1.12 1.26 0.80 0.51 1.10 0.28 0.14 0.24 0.23 0.22 0.25 0.13 0.14
0.49 0.25 0.34 0.40 0.21 0.26 0.32 0.25 0.34 0.31 0.27 0.48 0.23 0.14 0.17 0.15 0.10 0.16 0.08 0.06 0.27 0.35 0.54 0.12 0.12 0.02 0.08 0.03 0.06 0.33 0.16 0.16 0.44 0.25 0.40 0.38 0.25 0.26 0.21 0.14 0.11 0.12 0.21 0.14 0.25 0.29 0.38 0.43 0.42 0.42 0.41 0.34 0.30 0.47 0.83 1.01 1.48 1.21 1.07 0.84 0.90 1.12 1.42 1.26 1.76 1.82 1.32 1.31 1.05 1.06 1.28 0.58 0.63 1.19 0.90 0.93 0.58 0.50 1.45 0.93 0.31 0.32 0.12 0.08 0.06 0.07
0.17 0.26 0.19 0.34 0.31 0.39 0.29 0.26 0.32 0.39 0.44 0.45 0.30 0.20 0.14 0.17 0.14 0.19 0.18 0.14 0.09 0.03 0.33 0.31 0.25 0.11 0.04 0.14 0.06 0.06 0.31 0.24 0.15 0.30 0.36 0.36 0.34 0.24 0.31 0.23 0.07 0.05 0.15 0.21 0.96 0.47 0.30 0.38 0.29 0.34 0.40 0.43 0.48 0.50 0.56 0.64 0.75 1.09 1.07 1.51 1.21 0.72 1.12 1.45 1.12 1.10 1.04 1.08 0.83 0.92 0.84 0.99 1.38 0.77 0.83 0.61 0.29 0.29 0.28 0.29 0.34 0.52 0.19 0.11 0.09 0.06
0.16 0.19 0.14 0.35 0.33 0.37 0.31 0.29 0.42 0.67 0.38 0.22 0.16 0.12 0.16 0.16 0.12 0.15 0.21 0.14 0.10 0.09 0.28 0.22 0.20 0.10 0.24 0.12 0.18 0.20 0.27 0.20 0.32 0.33 0.36 0.38 0.33 0.27 0.18 0.31 0.37 0.48 0.37 0.29 0.38 0.65 0.46 0.59 0.50 0.59 0.76 0.53 0.46 0.42 0.44 0.61 0.66 0.90 0.93 0.87 0.97 1.04 0.94 0.94 1.11 0.78 0.68 0.80 1.32 0.98 0.57 0.79 0.68 0.84 0.92 0.88 0.63 0.40 0.52 0.28 0.19 0.21 0.26 0.27 0.21 0.22
0.02 0.07 0.14 0.10 0.20 0.29 0.44 0.56 0.35 0.46 0.33 0.21 0.35 0.19 0.07 0.10 0.32 0.14 0.16 0.13 0.20 0.22 0.20 0.32 0.23 0.12 0.14 0.17 0.18 0.30 0.28 0.64 0.17 0.16 0.27 0.25 0.18 0.16 0.11 0.08 0.15 0.20 0.32 0.22 0.25 0.52 0.79 0.60 0.87 1.26 1.09 0.80 0.75 0.82 0.58 0.48 0.58 0.64 0.96 0.83 0.83 1.04 1.00 1.06 0.75 0.61 0.62 0.72 0.67 0.84 0.84 0.94 0.59 0.80 1.03 0.50 0.63 0.71 0.85 0.57 0.67 0.61 0.50 0.41 0.23 0.20
0.02 0.21 0.11 0.41 0.14 0.33 0.35 0.39 0.54 0.61 0.28 0.24 0.17 0.12 0.20 0.23 0.18 0.07 0.13 0.17 0.09 0.16 0.19 0.30 0.39 0.38 0.10 0.15 0.20 0.37 0.34 0.24 0.35 0.41 0.51 0.36 0.25 0.19 0.11 0.11 0.05 0.13 0.12 0.34 0.53 0.35 0.19 0.42 0.73 0.85 0.91 0.91 1.14 0.77 0.79 0.70 0.73 0.59 0.51 0.94 0.87 0.66 0.73 0.65 0.73 0.75 0.96 0.78 0.51 0.54 0.60 0.86 0.57 1.43 0.91 1.13 0.52 0.43 1.06 0.59 0.54 0.35 0.20 0.27 0.22 0.19
0.06 0.19 0.25 0.20 0.42 0.09 0.30 0.45 0.67 0.62 0.37 0.50 0.28 0.29 0.16 0.19 0.15 0.18 0.09 0.10 0.07 0.09 0.11 0.20 0.47 0.93 0.66 0.32 0.33 0.44 0.34 0.38 0.26 0.32 0.40 0.37 0.27 0.18 0.09 0.07 0.11 0.16 0.26 0.40 0.27 0.40 0.77 1.14 1.05 0.75 0.93 0.90 0.69 0.83 0.91 0.90 0.91 0.73 0.91 1.00 1.07 1.54 1.31 0.59 0.51 0.47 0.56 0.61 0.67 0.76 0.56 0.56 0.84 0.35 0.73 0.74 0.66 0.38 0.44 0.60 0.38 0.35 0.34 0.22 0.35 0.40
0.14 0.16 0.10 0.18 0.28 0.08 0.18 0.29 0.31 0.28 0.34 0.16 0.27 0.29 0.42 0.32 0.20 0.22 0.11 0.36 0.25 0.17 0.09 0.08 0.15 0.31 0.47 0.58 0.51 0.47 0.55 0.49 0.46 0.41 0.41 0.36 0.34 0.24 0.14 0.08 0.06 0.02 0.01 0.04 0.11 0.12 0.13 0.19 0.22 0.33 0.43 0.51 0.63 0.40 0.25 0.34 0.40 0.45 0.52 0.40 0.56 0.69 0.73 0.86 1.19 0.80 0.76 0.53 0.56 0.48 0.43 0.40 0.46 0.37 0.25 0.46 0.47 0.45 0.30 0.27 0.27 0.29 0.41 0.20 0.18 0.16
0.28 0.37 0.54 0.14 0.30 0.11 0.19 0.15 0.50 0.42 0.21 0.09 0.10 0.17 0.14 0.29 0.61 0.63 0.38 0.35 0.27 0.28 0.17 0.16 0.14 0.21 0.47 0.78 0.89 0.72 0.57 1.21 0.58 0.58 0.41 0.22 0.19 0.12 0.10 0.07 0.03 0.02 0.03 0.01 0.01 0.05 0.04 0.05 0.04 0.04 0.07 0.13 0.14 0.08 0.17 0.08 0.08 0.09 0.10 0.09 0.12 0.22 0.21 0.23 0.25 0.30 0.54 0.63 0.50 0.39 0.35 0.28 0.34 0.45 0.56 1.03 1.46 1.50 0.92 0.29 0.38 0.49 0.18 0.22 0.29 0.21
0.25 0.49 0.13 0.43 0.39 0.33 0.13 0.22 0.15 0.11 0.06 0.02 0.02 0.02 0.04 0.11 0.19 0.24 0.38 0.49 0.29 0.30 0.27 0.21 0.22 0.22 0.22 0.43 0.70 1.02 0.88 0.88 0.83 0.64 0.37 0.19 0.09 0.04 0.03 0.03 0.02 0.00 0.00 0.01 0.01 0.01 0.00 0.01 0.01 0.01 0.03 0.04 0.02 0.02 0.04 0.03 0.01 0.01 0.02 0.10 0.08 0.14 0.12 0.19 0.20 0.23 0.24 0.27 0.27 0.33 0.33 0.41 0.23 0.17 0.18 0.15 0.15 0.11 0.25 0.81 0.99 0.93 0.61 0.61 0.41 0.21
0.11 0.11 0.41 0.22 0.51 0.37 0.35 0.18 0.28 0.23 0.16 0.03 0.01 0.01 0.13 0.08 0.41 0.23 0.29 0.24 0.31 0.25 0.25 0.27 0.30 0.38 0.39 0.42 0.37 0.41 0.60 0.64 0.66 0.48 0.34 0.21 0.11 0.07 0.03 0.01 0.01 0.00 0.00 0.00 0.00 0.00 0.00 0.00 0.01 0.03 0.00 0.00 0.02 0.01 0.00 0.00 0.03 0.00 0.00 0.00 0.02 0.04 0.10 0.06 0.06 0.08 0.11 0.14 0.15 0.17 0.19 0.19 0.18 0.17 0.15 0.17 0.14 0.10 0.07 0.05 0.03 0.04 0.14 0.18 0.28 0.41
0.17 0.20 0.31 0.45 0.12 0.19 0.25 0.36 0.44 0.41 0.29 0.01 0.04 0.01 0.05 0.15 0.09 0.16 0.13 0.20 0.22 0.24 0.28 0.39 0.48 0.42 0.35 0.37 0.33 0.32 0.32 0.38 0.38 0.32 0.23 0.19 0.13 0.11 0.10 0.07 0.04 0.03 0.02 0.01 0.01 0.00 0.01 0.00 0.00 0.00 0.04 0.01 0.00 0.00 0.00 0.00 0.00 0.00 0.00 0.00 0.00 0.01 0.00 0.01 0.03 0.02 0.02 0.02 0.04 0.07 0.11 0.07 0.08 0.10 0.09 0.07 0.09 0.10 0.10 0.04 0.02 0.02 0.01 0.01 0.00 0.00
0.27 0.25 0.22 0.16 0.14 0.15 0.17 0.24 0.37 0.40 0.24 0.07 0.03 0.06 0.12 0.04 0.12 0.14 0.09 0.20 0.24 0.33 0.35 0.37 0.38 0.38 0.37 0.31 0.27 0.28 0.24 0.23 0.23 0.22 0.18 0.14 0.12 0.08 0.06 0.05 0.05 0.07 0.06 0.04 0.03 0.02 0.01 0.01 0.00 0.00 0.00 0.01 0.02 0.01 0.00 0.00 0.00 0.00 0.00 0.00 0.00 0.00 0.00 0.00 0.00 0.00 0.00 0.00 0.00 0.00 0.00 0.00 0.01 0.00 0.01 0.01 0.02 0.02 0.01 0.04 0.03 0.01 0.00 0.00 0.00 0.00
0.21 0.11 0.17 0.14 0.22 0.27 0.22 0.23 0.20 0.12 0.16 0.10 0.07 0.07 0.09 0.08 0.06 0.10 0.07 0.14 0.45 0.51 0.32 0.30 0.34 0.36 0.41 0.33 0.26 0.21 0.19 0.17 0.17 0.15 0.14 0.11 0.10 0.08 0.06 0.05 0.04 0.04 0.06 0.07 0.03 0.02 0.01 0.01 0.01 0.00 0.00 0.01 0.00 0.01 0.01 0.01 0.01 0.01 0.00 0.00 0.00 0.00 0.00 0.00 0.00 0.01 0.13 0.01 0.00 0.00 0.00 0.00 0.00 0.00 0.00 0.01 0.00 0.00 0.01 0.01 0.00 0.00 0.00 0.01 0.00 0.00
0.06 0.04 0.11 0.08 0.14 0.14 0.11 0.12 0.13 0.06 0.07 0.09 0.07 0.08 0.08 0.07 0.08 0.08 0.06 0.21 0.22 0.39 0.35 0.31 0.33 0.31 0.33 0.35 0.31 0.23 0.18 0.12 0.09 0.08 0.08 0.08 0.09 0.09 0.08 0.07 0.06 0.06 0.05 0.03 0.03 0.02 0.01 0.01 0.00 0.00 0.00 0.00 0.00 0.00 0.00 0.00 0.00 0.00 0.01 0.00 0.00 0.00 0.00 0.00 0.00 0.00 0.00 0.00 0.00 0.02 0.15 0.16 0.01 0.03 0.00 0.01 0.00 0.00 0.00 0.00 0.02 0.03 0.05 0.02 0.01 0.01
0.10 0.05 0.06 0.07 0.13 0.09 0.26 0.18 0.08 0.07 0.03 0.03 0.05 0.08 0.08 0.09 0.11 0.08 0.06 0.16 0.22 0.35 0.35 0.34 0.35 0.33 0.32 0.32 0.35 0.31 0.24 0.17 0.14 0.10 0.08 0.06 0.06 0.07 0.07 0.08 0.07 0.05 0.05 0.03 0.02 0.01 0.00 0.00 0.00 0.00 0.00 0.00 0.00 0.00 0.00 0.00 0.00 0.00 0.00 0.00 0.00 0.00 0.00 0.00 0.00 0.00 0.00 0.00 0.00 0.01 0.09 0.01 0.10 0.39 0.34 0.04 0.29 0.03 0.09 0.00 0.01 0.00 0.00 0.00 0.02 0.02
0.07 0.02 0.05 0.04 0.05 0.04 0.13 0.05 0.02 0.01 0.01 0.02 0.01 0.01 0.02 0.03 0.02 0.02 0.03 0.03 0.05 0.10 0.19 0.25 0.24 0.24 0.23 0.26 0.29 0.28 0.25 0.20 0.17 0.13 0.09 0.07 0.06 0.05 0.05 0.05 0.05 0.04 0.03 0.01 0.01 0.01 0.00 0.00 0.00 0.00 0.00 0.00 0.00 0.00 0.00 0.00 0.00 0.00 0.00 0.00 0.00 0.00 0.00 0.00 0.00 0.00 0.00 0.00 0.00 0.00 0.00 0.00 0.00 0.01 0.06 0.07 0.07 0.11 0.60 0.14 0.18 0.15 0.02 0.24 0.10 0.30
0.02 0.02 0.02 0.05 0.05 0.04 0.01 0.01 0.01 0.02 0.01 0.01 0.00 0.00 0.00 0.01 0.00 0.00 0.01 0.01 0.01 0.02 0.04 0.07 0.10 0.13 0.13 0.14 0.12 0.12 0.12 0.10 0.09 0.09 0.08 0.06 0.05 0.05 0.04 0.03 0.02 0.02 0.01 0.01 0.00 0.00 0.00 0.00 0.00 0.00 0.00 0.00 0.00 0.00 0.00 0.00 0.00 0.00 0.00 0.00 0.00 0.00 0.00 0.00 0.00 0.00 0.00 0.00 0.00 0.00 0.00 0.00 0.00 0.01 0.01 0.01 0.01 0.37 0.04 0.24 0.20 0.15 0.09 0.10 0.13 0.11
0.01 0.04 0.01 0.00 0.07 0.07 0.08 0.06 0.03 0.05 0.04 0.04 0.01 0.00 0.00 0.00 0.00 0.00 0.00 0.01 0.00 0.00 0.01 0.01 0.02 0.05 0.07 0.08 0.07 0.05 0.05 0.05 0.05 0.05 0.05 0.05 0.04 0.04 0.03 0.03 0.02 0.01 0.01 0.00 0.00 0.00 0.00 0.00 0.00 0.00 0.00 0.00 0.00 0.00 0.00 0.00 0.00 0.00 0.00 0.00 0.00 0.00 0.00 0.00 0.00 0.00 0.00 0.00 0.00 0.01 0.00 0.00 0.00 0.00 0.00 0.00 0.00 0.00 0.01 0.05 0.09 0.18 0.37 0.46 0.14 0.02
0.03 0.02 0.05 0.03 0.04 0.03 0.02 0.02 0.01 0.00 0.01 0.03 0.01 0.01 0.00 0.00 0.00 0.00 0.00 0.00 0.00 0.00 0.00 0.00 0.00 0.00 0.00 0.01 0.01 0.01 0.01 0.01 0.00 0.00 0.00 0.00 0.01 0.00 0.00 0.00 0.00 0.01 0.01 0.00 0.00 0.00 0.00 0.00 0.00 0.00 0.00 0.00 0.00 0.00 0.00 0.00 0.00 0.00 0.00 0.00 0.00 0.00 0.00 0.00 0.00 0.00 0.00 0.00 0.00 0.00 0.00 0.00 0.01 0.08 0.01 0.00 0.00 0.01 0.01 0.01 0.18 0.01 0.01 0.06 0.27 0.24